カタログに戻る

NOAA 16 DEB

運用中SSO
NORAD 41416·DEBRIS·🇺🇸 United States

打ち上げ Sep 21, 2000 から Vandenberg Space Force Base

Loading…

次のパス (今後24時間)

TLE

最新Source: Space-Track

元期: Sep 14, 2026, 13:51 UTC

1 41416U 00055KV  26257.57723641  .00004576  00000-0  14010-2 0  9993
2 41416  98.7809  15.8272 0027891 189.6310 170.4348 14.42032031547710

AllMySatでNOAA 16 DEBをリアルタイム追跡

Download on the App Store